Glenwood, MN

1:12 AM CDT on June 23, 2017 (GMT -0500)
Glenwood Municipal

Weather History for KGHW - March, 2013

Change the Weather History Date:

Saturday, March 9, 2013

  Actual Average Record
Temperature  
Mean Temperature 32 °F -  
Max Temperature 33 °F 33 °F 51 °F (2015)
Min Temperature 30 °F 14 °F -23 °F (1951)
Degree Days  
Heating Degree Days 34    
Moisture  
Dew Point 32 °F    
Average Humidity 95    
Maximum Humidity 100    
Minimum Humidity 87    
Precipitation  
Precipitation 0.95 in - - ()
Sea Level Pressure  
Sea Level Pressure 29.80 in    
Wind  
Wind Speed 7 mph (ENE)    
Max Wind Speed 17 mph    
Max Gust Speed 24 mph    
Visibility 3 miles    
Events Fog , Rain , Snow    
Averages and records for this station are not official NWS values.
T = Trace of Precipitation, MM = Missing Value Source: NWS Daily Summary

Daily Weather History Graph

Daily Weather History Graph

Search for Another Location

Airport or City:

Trip Planner

Search our weather history database for the weather conditions in past years. The results will help you decide how hot, cold, wet, or windy it might be!

Date:

Astronomy

Mar. 09, 2013 Rise Set
Actual Time 6:44 AM CST 6:19 PM CST
Civil Twilight 6:15 AM CST 6:49 PM CST
Nautical Twilight 5:40 AM CST 7:23 PM CST
Astronomical Twilight 5:05 AM CST 7:58 PM CST
Moon 5:14 AM CST (3/9) 4:18 PM CST (3/9)
Length of Visible Light 12h 34m
Length of Day
11h 34m
Waning Crescent, 5% of the Moon is Illuminated
Mar 9
Waning Crescent
Mar 11
New
Mar 19
First Quarter
Mar 27
Full
Apr 2
Last Quarter

Hourly Weather History & Observations

Time (CST) Temp. Windchill Dew Point Humidity Pressure Visibility Wind Dir Wind Speed Gust Speed Precip Events Conditions
12:14 AM 30.2 °F 21.3 °F 30.2 °F 100% 30.00 in 3.0 mi ESE 10.4 mph - 0.01 in   Mostly Cloudy
12:53 AM 30.2 °F 23.4 °F 30.2 °F 100% 29.98 in 2.0 mi ESE 6.9 mph - 0.08 in   Unknown
1:14 AM 32.0 °F 26.4 °F 30.2 °F 93% 29.97 in 2.0 mi ESE 5.8 mph - 0.05 in   Mostly Cloudy
1:33 AM 32.0 °F 25.6 °F 30.2 °F 93% 29.96 in 2.0 mi ESE 6.9 mph - 0.10 in   Mostly Cloudy
1:53 AM 32.0 °F 26.4 °F 30.2 °F 93% 29.95 in 2.0 mi SE 5.8 mph - 0.14 in   Overcast
2:14 AM 32.0 °F 26.4 °F 30.2 °F 93% 29.94 in 2.0 mi SE 5.8 mph - 0.03 in   Overcast
2:33 AM 32.0 °F 26.4 °F 30.2 °F 93% 29.93 in 2.0 mi SE 5.8 mph - 0.05 in   Overcast
2:53 AM 32.0 °F 25.6 °F 30.2 °F 93% 29.92 in 2.5 mi SE 6.9 mph - 0.06 in   Overcast
3:14 AM 32.0 °F 26.4 °F 30.2 °F 93% 29.90 in 2.5 mi SE 5.8 mph - 0.03 in   Overcast
3:33 AM 32.0 °F 26.4 °F 32.0 °F 100% 29.89 in 2.5 mi SE 5.8 mph - 0.07 in   Overcast
3:53 AM 32.0 °F 26.4 °F 32.0 °F 100% 29.88 in 2.5 mi SE 5.8 mph - 0.10 in Snow Light Snow
4:14 AM 32.0 °F 25.6 °F 32.0 °F 100% 29.88 in 2.5 mi SE 6.9 mph - 0.03 in Snow Light Snow
4:33 AM 32.0 °F 26.4 °F 32.0 °F 100% 29.87 in 3.0 mi SE 5.8 mph - 0.04 in Snow Light Snow
4:53 AM 32.0 °F 25.6 °F 32.0 °F 100% 29.87 in 4.0 mi SE 6.9 mph - 0.04 in Snow Light Snow
5:13 AM 32.0 °F 27.5 °F 32.0 °F 100% 29.86 in 4.0 mi SE 4.6 mph - N/A Snow Light Snow
5:53 AM 32.0 °F 27.5 °F 32.0 °F 100% 29.86 in 4.0 mi SE 4.6 mph - N/A   Overcast
6:13 AM 32.0 °F 27.5 °F 32.0 °F 100% 29.84 in 3.0 mi SE 4.6 mph - N/A   Overcast
6:33 AM 32.0 °F 27.5 °F 32.0 °F 100% 29.84 in 3.0 mi SE 4.6 mph - N/A   Overcast
6:53 AM 33.8 °F 28.6 °F 32.0 °F 93% 29.83 in 3.0 mi SE 5.8 mph - N/A   Overcast
7:13 AM 33.8 °F 30.8 °F 32.0 °F 93% 29.83 in 1.8 mi SE 3.5 mph - N/A   Overcast
7:33 AM 33.8 °F 30.8 °F 32.0 °F 93% 29.83 in 1.5 mi SE 3.5 mph - N/A   Overcast
7:53 AM 33.8 °F - 32.0 °F 93% 29.81 in 0.8 mi Calm Calm - N/A   Overcast
8:13 AM 33.8 °F - 32.0 °F 93% 29.81 in 0.2 mi Calm Calm - N/A Fog Fog
8:33 AM 33.8 °F 30.8 °F 32.0 °F 93% 29.80 in 0.2 mi ESE 3.5 mph - N/A Fog Fog
8:53 AM 33.8 °F 30.8 °F 32.0 °F 93% 29.79 in 0.2 mi East 3.5 mph - N/A Fog Fog
9:13 AM 33.8 °F 30.8 °F 32.0 °F 93% 29.79 in 0.2 mi East 3.5 mph - N/A Fog Fog
9:33 AM 33.8 °F - 32.0 °F 93% 29.79 in 0.2 mi Calm Calm - N/A Fog Fog
9:53 AM 33.8 °F 30.8 °F 32.0 °F 93% 29.77 in 0.2 mi East 3.5 mph - N/A Fog Fog
10:13 AM 33.8 °F 30.8 °F 32.0 °F 93% 29.78 in 0.2 mi East 3.5 mph - N/A   Overcast
10:33 AM 33.8 °F 29.6 °F 33.8 °F 100% 29.78 in 0.2 mi East 4.6 mph - N/A Snow Light Snow
10:53 AM 33.8 °F 28.6 °F 33.8 °F 100% 29.77 in 0.2 mi East 5.8 mph - 0.01 in   Overcast
11:13 AM 33.8 °F 27.7 °F 33.8 °F 100% 29.75 in 0.8 mi East 6.9 mph - 0.01 in   Overcast
11:33 AM 33.8 °F 27.7 °F 33.8 °F 100% 29.75 in 1.0 mi East 6.9 mph - 0.05 in   Overcast
11:53 AM 33.8 °F 28.6 °F 33.8 °F 100% 29.75 in 1.5 mi East 5.8 mph - 0.09 in   Overcast
12:13 PM 33.8 °F 28.6 °F 33.8 °F 100% 29.76 in 1.2 mi East 5.8 mph - 0.05 in   Overcast
12:33 PM 33.8 °F 28.6 °F 33.8 °F 100% 29.74 in 1.5 mi East 5.8 mph - 0.12 in   Overcast
12:53 PM 33.8 °F 27.7 °F 33.8 °F 100% 29.72 in 2.0 mi NE 6.9 mph - 0.17 in   Overcast
1:13 PM 33.8 °F 28.6 °F 33.8 °F 100% 29.72 in 2.0 mi ENE 5.8 mph - 0.05 in   Overcast
1:34 PM 33.8 °F 28.6 °F 33.8 °F 100% 29.72 in 1.8 mi ENE 5.8 mph - 0.08 in   Overcast
1:53 PM 33.8 °F 29.6 °F 33.8 °F 100% 29.71 in 1.5 mi NE 4.6 mph - 0.10 in Snow Light Snow
2:13 PM 33.8 °F 27.0 °F 33.8 °F 100% 29.68 in 1.8 mi NE 8.1 mph - 0.02 in Snow Light Snow
2:34 PM 33.8 °F 28.6 °F 32.0 °F 93% 29.68 in 3.0 mi NE 5.8 mph - 0.03 in Rain Light Rain
2:53 PM 33.8 °F 30.8 °F 33.8 °F 100% 29.70 in 1.8 mi North 3.5 mph - 0.05 in Snow Light Snow
3:13 PM 33.8 °F 29.6 °F 32.0 °F 93% 29.71 in 0.8 mi North 4.6 mph - 0.03 in Snow Light Snow
3:33 PM 33.8 °F 29.6 °F 32.0 °F 93% 29.70 in 0.8 mi North 4.6 mph - 0.05 in Snow Light Snow
3:53 PM 33.8 °F 26.4 °F 32.0 °F 93% 29.68 in 1.5 mi North 9.2 mph - 0.06 in Snow Light Snow
4:13 PM 33.8 °F 27.7 °F 32.0 °F 93% 29.70 in 2.5 mi North 6.9 mph - 0.01 in Snow Light Snow
4:33 PM 33.8 °F 28.6 °F 32.0 °F 93% 29.71 in 1.0 mi North 5.8 mph - 0.01 in Snow Light Snow
4:53 PM 33.8 °F 27.7 °F 32.0 °F 93% 29.71 in 1.5 mi North 6.9 mph - 0.02 in Snow Light Snow
5:13 PM 33.8 °F 27.0 °F 32.0 °F 93% 29.72 in 3.0 mi North 8.1 mph - 0.01 in Snow Light Snow
5:33 PM 33.8 °F 27.7 °F 32.0 °F 93% 29.74 in 2.5 mi NNW 6.9 mph - 0.01 in Snow Light Snow
5:53 PM 33.8 °F 27.0 °F 32.0 °F 93% 29.74 in 1.5 mi NNW 8.1 mph - 0.01 in Snow Light Snow
6:13 PM 33.8 °F 26.4 °F 32.0 °F 93% 29.74 in 1.0 mi NNW 9.2 mph - 0.01 in Snow Light Snow
6:33 PM 33.8 °F 26.4 °F 32.0 °F 93% 29.75 in 1.8 mi NNW 9.2 mph - 0.02 in Snow Light Snow
6:53 PM 33.8 °F 26.4 °F 32.0 °F 93% 29.76 in 2.5 mi NNW 9.2 mph - 0.02 in Snow Light Snow
7:13 PM 33.8 °F 25.3 °F 32.0 °F 93% 29.76 in 5.0 mi NNW 11.5 mph - N/A Snow Light Snow
7:33 PM 32.0 °F 23.0 °F 32.0 °F 100% 29.76 in 10.0 mi NNW 11.5 mph - N/A Snow Light Snow
7:53 PM 33.8 °F 25.3 °F 32.0 °F 93% 29.78 in 7.0 mi NNW 11.5 mph - N/A Snow Light Snow
8:14 PM 32.0 °F 23.6 °F 30.2 °F 93% 29.79 in 7.0 mi NNW 10.4 mph - N/A Snow Light Snow
8:53 PM 33.8 °F 25.3 °F 30.2 °F 87% 29.79 in 7.0 mi NNW 11.5 mph - N/A Snow Light Snow
9:14 PM 32.0 °F 21.6 °F 30.2 °F 93% 29.79 in 7.0 mi NNW 15.0 mph - N/A Snow Light Snow
9:33 PM 32.0 °F 21.6 °F 30.2 °F 93% 29.80 in 5.0 mi NNW 15.0 mph - N/A Snow Light Snow
9:53 PM 32.0 °F 21.6 °F 30.2 °F 93% 29.81 in 5.0 mi NNW 15.0 mph - N/A   Overcast
10:13 PM 30.2 °F 18.9 °F 28.4 °F 93% 29.83 in 5.0 mi NW 16.1 mph - N/A   Overcast
10:33 PM 30.2 °F 18.5 °F 28.4 °F 93% 29.83 in 5.0 mi NNW 17.3 mph - N/A   Overcast
10:53 PM 30.2 °F 19.3 °F 28.4 °F 93% 29.84 in 5.0 mi NNW 15.0 mph 24.2 mph N/A   Overcast
11:14 PM 30.2 °F 20.2 °F 28.4 °F 93% 29.85 in 5.0 mi NNW 12.7 mph - N/A   Overcast
11:33 PM 30.2 °F 18.9 °F 28.4 °F 93% 29.86 in 5.0 mi NNW 16.1 mph - N/A   Overcast
11:53 PM 30.2 °F 18.9 °F 28.4 °F 93% 29.85 in 4.0 mi NNW 16.1 mph 20.7 mph N/A   Overcast